SCP
0 0 0 0 0 0 0 0 0 0 0 0 0 0 0 0 0 0 0 0 0 0 0 1 1 0 0 -0 -0 0 0 0 0 0 0 0 0 0 0 0 0 0 0
0 0 0 0 0 0 0 0 0 0 0 0 0 0 0 0 0 0 0 0 0 1 0 1 0 0 0 0 0 0 0 0 0 0 0 0 0 0 0 0 0 0 0
0 0 0 0 0 0 0 0 0 0 0 0 0 0 0 -0 0 0 0 0 0 -0 1 1 1 0 0 0 0 0 0 0 0 0 1 0 0 0 0 0 0 0 0
0 0 0 0 0 0 0 0 0 0 0 0 0 0 0 0 0 0 0 0 0 0 0 1 1 1 1 1 2 1 1 0 0 1 1 1 0 0 0 0 0 0 0
0 0 0 0 0 0 0 0 0 0 0 0 0 0 0 0 0 0 0 0 0 0 0 0 0 0 0 0 1 1 1 1 0 0 1 1 1 0 0 0 0 0 0
0 0 0 0 0 0 0 0 0 0 0 0 0 0 0 0 0 0 0 0 0 0 0 0 0 0 0 1 1 1 0 1 1 1 0 1 1 1 0 0 0 0 0
0 0 0 0 0 0 0 0 0 0 0 0 0 0 0 0 0 0 0 0 0 0 0 0 0 0 0 0 0 0 0 1 1 1 1 1 1 1 1 1 1 0 1
0 0 0 0 0 0 0 0 0 0 0 0 0 0 0 0 0 0 0 0 0 0 0 0 0 0 0 0 0 1 1 1 0 1 1 1 1 1 1 1 1 0 0
0 0 0 0 0 0 0 0 0 0 0 0 0 0 0 0 0 0 0 0 0 0 0 0 0 0 0 0 0 1 1 1 1 1 0 0 2 1 1 1 0 0 0
0 0 0 0 0 0 0 0 0 0 0 0 0 0 0 0 0 0 0 0 0 0 0 0 0 0 0 0 0 0 0 0 0 0 0 0 1 1 1 0 0 0 0
0 0 0 0 0 0 0 0 0 0 0 0 0 0 0 0 0 0 0 0 0 0 0 0 -0 -0 -0 0 0 0 0 0 0 0 -0 0 0 0 0 0 0 0 0
0 0 0 0 0 0 0 0 0 0 0 0 0 0 0 0 0 0 0 0 0 0 0 0 0 0 0 0 -0 0 0 0 0 0 -0 0 0 0 0 0 0 0 0
0 0 0 0 0 0 0 0 0 0 0 0 0 0 0 0 0 0 0 0 0 0 0 0 0 0 0 0 0 0 0 0 0 0 0 0 0 -0 -0 0 0 0 0
0 0 0 0 0 0 0 0 0 0 0 0 0 0 0 0 0 0 0 0 0 0 0 0 0 0 0 0 0 0 0 0 0 0 0 0 0 0 0 0 0 0 0
0 0 0 0 0 0 0 0 0 0 0 0 0 0 0 0 0 0 0 0 0 0 0 0 0 0 0 0 0 0 0 0 0 0 -0 0 0 -0 -0 0 0 0 0
0 0 0 0 0 0 0 0 0 0 0 0 0 0 0 0 0 0 0 0 0 0 0 0 0 0 0 0 0 0 0 0 0 0 0 0 0 -0 0 0 0 0 0
0 0 0 0 0 0 0 0 0 0 0 0 0 0 0 0 0 0 0 0 0 0 0 0 0 0 0 0 0 0 0 0 0 0 -0 0 0 0 0 0 0 0 0
0 0 0 0 0 0 0 0 0 0 0 0 0 0 0 0 0 0 0 0 0 0 0 0 0 0 0 0 0 0 0 0 0 0 0 0 0 0 0 0 0 0 0
0 0 0 0 0 0 0 0 0 0 0 0 0 -0 0 0 0 0 0 0 0 0 0 0 0 0 0 0 0 0 0 0 0 0 -0 0 0 0 0 0 0 0 0
0 0 0 0 0 0 0 0 0 -0 -0 0 0 0 0 0 0 0 0 0 0 0 0 0 0 0 0 0 0 0 0 0 0 0 0 0 0 0 0 0 0 0 0
0 0 0 0 0 0 0 0 0 0 0 0 0 0 0 0 0 0 0 0 0 0 0 0 0 0 0 0 -0 -0 -0 0 0 -0 -0 0 0 0 0 -0 -0 0 0
0 0 0 0 0 0 0 0 0 0 0 0 0 0 0 0 0 0 0 -0 -0 0 0 -0 -0 0 0 -0 -0 -0 -0 -0 0 -0 0 0 0 0 0 0 -0 0 0
0 0 0 0 0 0 0 0 0 0 0 0 0 0 0 0 0 0 0 0 0 -0 -0 0 0 -0 -0 -0 -0 -0 -0 0 -0 -0 0 0 0 0 0 -0 0 -0 0
0 0 0 0 0 0 0 0 0 0 0 0 0 0 0 0 0 0 0 0 0 -0 -0 0 0 0 0 0 0 0 0 0 0 0 -0 0 -0 -0 -0 -0 -0 0 0
0 0 0 0 0 0 0 -0 0 0 0 0 0 0 0 0 0 0 0 0 0 0 -0 -0 0 0 0 0 0 0 0 0 0 -0 -0 -0 -0 -0 -0 -0 -0 -0 0
0 0 0 0 0 -0 0 -0 0 0 0 0 0 0 -0 0 0 0 0 0 0 0 0 -0 -0 -0 -0 0 0 0 0 0 0 0 -0 -0 -0 -0 -0 -0 -0 -0 -0
Wind_Speed_500mb
41 46 47 40 35 31 33 36 39 35 31 31 32 30 29 28 28 29 35 37 35 41 37 46 43 32 41 48 52 45 47 47 46 45 42 38 34 29 28 24 22 20 24
36 35 39 41 42 39 43 44 40 38 35 42 36 39 37 36 31 26 29 31 24 30 18 40 40 38 40 45 47 46 45 47 47 46 44 43 39 33 29 26 22 21 25
29 34 38 38 32 34 37 48 44 42 44 33 37 37 45 51 41 23 26 32 27 27 18 20 36 43 50 46 43 41 42 48 46 45 47 45 43 40 33 28 23 23 24
32 33 37 39 41 39 37 41 43 44 44 40 38 38 40 49 42 41 30 24 33 40 46 36 26 32 40 44 47 44 40 43 47 46 49 49 47 45 37 31 30 29 28
51 43 32 35 40 42 42 42 37 33 39 34 40 49 51 51 52 47 38 27 20 29 33 40 39 37 23 33 42 45 45 43 47 49 53 55 50 46 40 34 34 31 30
64 55 44 39 36 39 40 43 44 45 46 60 67 63 57 52 44 44 39 32 27 33 31 37 36 36 36 35 31 36 43 50 50 52 54 55 52 49 42 38 34 31 29
49 50 56 56 55 57 56 54 56 59 56 44 39 46 51 45 42 44 31 38 33 29 28 28 33 31 33 34 36 32 40 49 55 53 55 55 57 52 46 42 36 33 35
54 59 60 54 40 44 48 50 45 34 27 34 44 45 40 52 37 15 23 31 22 16 19 26 34 33 28 27 29 36 50 59 51 55 57 60 64 58 49 43 40 39 35
54 56 49 47 46 32 27 23 27 37 47 43 44 41 30 16 42 37 29 20 14 23 29 32 30 32 32 34 29 33 43 46 46 49 54 67 80 67 58 49 48 44 33
61 55 55 50 42 35 34 38 44 49 50 43 45 36 35 33 30 34 33 32 33 15 16 17 21 23 24 22 26 31 39 51 50 48 53 70 94 51 64 58 43 35 32
52 47 49 45 36 34 38 41 42 33 32 31 30 30 29 23 22 34 46 25 15 27 31 33 34 31 27 25 20 17 11 18 12 26 29 69 73 86 49 39 40 33 27
51 45 44 36 31 32 32 35 36 35 36 39 34 32 27 23 24 22 36 32 27 9 15 21 24 21 19 20 19 7 18 11 14 14 7 23 34 24 35 35 30 25 21
54 51 51 44 38 35 37 41 43 46 45 46 47 42 34 30 29 29 32 35 26 20 15 11 11 11 11 9 11 10 18 18 20 11 11 25 19 24 26 26 23 21 17
64 65 55 41 41 41 44 47 50 52 55 50 43 40 42 36 28 28 31 31 26 20 16 13 7 2 6 10 17 24 32 34 36 44 37 28 26 23 17 19 19 16 13
72 53 43 41 45 46 47 51 56 53 44 40 38 38 33 31 29 26 27 31 29 25 13 12 14 10 11 20 23 20 10 4 25 24 26 26 26 25 23 20 19 16 12
48 39 36 38 42 53 60 56 42 37 32 32 29 24 22 23 26 22 26 30 32 36 20 19 19 36 26 34 23 24 23 33 31 31 34 31 27 27 23 20 16 11 8
38 39 44 50 55 50 46 33 30 27 24 20 12 13 18 23 23 22 26 31 40 40 28 19 24 37 36 29 46 52 51 43 44 34 36 33 27 25 22 18 15 12 6
43 48 51 49 44 40 32 25 22 22 17 11 7 14 17 19 18 20 25 36 51 41 29 31 37 45 50 59 59 57 54 50 45 46 38 35 30 27 24 20 18 14 6
46 43 40 42 35 34 24 15 22 15 12 4 8 10 9 12 14 25 28 34 46 42 34 53 56 49 43 46 53 56 58 57 53 47 42 35 30 26 24 21 19 14 11
39 34 35 36 30 23 17 13 13 9 5 4 4 7 4 14 25 31 47 49 47 56 57 54 46 47 42 47 53 57 58 54 52 44 41 36 32 30 28 28 24 19 15
34 33 35 29 21 19 12 12 2 4 5 1 2 5 8 15 23 35 37 29 52 49 42 52 58 51 48 53 56 53 49 48 46 40 47 43 35 34 36 32 30 25 22
33 32 30 25 18 16 8 1 6 10 7 8 9 5 7 13 31 28 33 32 40 52 50 57 62 54 49 49 55 52 46 51 47 36 40 44 34 39 38 35 35 33 29
30 29 24 18 12 12 11 8 11 10 8 10 11 11 15 20 19 21 23 23 32 44 31 38 59 58 48 40 49 47 41 35 38 38 29 38 32 34 35 33 34 34 34
27 27 18 12 7 12 13 12 19 16 15 16 18 17 18 23 23 21 21 24 31 44 34 31 26 35 44 38 35 37 33 34 36 37 31 39 32 28 27 28 29 31 34
23 20 12 14 13 12 16 23 23 20 20 18 18 16 16 22 23 22 26 28 28 35 39 33 28 29 38 34 28 35 28 30 40 36 32 33 31 27 25 22 22 24 33
15 6 11 15 17 15 16 16 23 23 21 19 19 25 22 23 26 28 25 26 32 30 34 35 32 35 35 36 26 22 21 22 33 38 31 33 34 33 27 23 23 27 35
Wind_Direction_500mb
315 314 316 315 311 305 302 304 303 306 302 312 302 317 327 325 318 319 315 300 269 286 272 250 239 247 251 256 256 251 244 242 242 236 232 232 233 231 227 222 219 212 207
313 312 310 306 303 297 299 300 299 295 293 310 306 294 312 317 321 321 312 321 294 273 260 232 241 249 253 256 257 254 251 247 244 238 232 231 230 229 225 224 226 212 213
322 315 306 294 278 269 271 288 292 284 284 285 292 298 303 305 308 306 303 304 287 288 262 271 252 248 253 256 255 249 251 245 242 241 236 233 230 229 226 229 230 220 222
304 301 293 282 277 273 273 277 282 274 276 278 275 288 293 300 300 294 291 291 286 276 276 289 288 269 252 238 243 247 238 243 241 242 237 236 231 230 227 227 229 227 232
299 301 292 285 283 280 278 278 273 267 274 281 285 290 293 287 286 290 284 286 281 267 272 286 286 279 272 254 254 254 253 237 239 242 237 233 229 229 226 226 227 225 228
302 298 298 293 288 285 282 281 282 278 283 298 296 297 295 279 277 278 275 275 287 287 271 280 303 298 294 278 284 273 266 255 236 237 237 235 229 226 223 224 222 223 222
304 298 295 293 293 292 292 293 293 294 298 301 302 300 298 299 283 271 280 274 276 300 284 306 291 295 298 282 272 274 262 273 253 240 233 233 232 224 220 216 218 218 215
315 313 311 309 310 291 286 286 290 299 303 305 311 318 321 301 304 275 280 279 286 303 303 299 301 301 300 308 285 265 259 247 254 249 239 232 230 221 212 206 201 208 204
321 320 322 300 304 310 305 297 294 300 302 300 301 305 313 297 314 296 279 289 270 299 311 302 312 309 285 290 287 274 252 242 243 242 250 240 228 204 194 194 191 190 195
321 320 313 306 301 299 296 295 293 292 293 297 294 293 287 287 292 309 298 291 307 297 304 314 312 314 321 318 294 286 271 260 260 246 245 248 218 176 181 177 178 186 193
321 326 320 313 281 292 297 298 304 296 303 306 299 299 304 307 280 272 294 309 271 291 299 300 299 306 319 334 321 297 252 173 37 232 227 187 145 159 157 161 178 185 198
326 329 328 321 303 301 300 298 297 299 300 298 297 294 289 291 292 274 273 292 300 265 286 297 302 312 316 320 330 295 208 329 92 68 316 340 84 120 156 174 184 187 201
329 321 319 310 308 303 300 297 298 295 299 290 288 284 280 284 283 276 262 264 271 264 268 288 301 308 308 296 326 244 232 240 223 255 215 189 169 155 160 165 170 173 186
321 312 312 300 301 299 295 294 294 295 298 290 286 275 270 276 279 275 252 247 253 243 231 242 265 149 172 177 146 128 112 126 145 160 169 162 161 157 167 172 166 171 181
319 314 307 299 300 303 299 299 302 302 293 288 283 274 276 261 282 264 241 230 228 222 178 154 143 172 209 174 166 178 189 246 137 129 131 140 140 144 152 158 155 158 173
323 326 321 313 306 307 301 299 296 302 298 296 279 271 262 271 279 256 242 225 215 213 162 147 168 186 190 166 161 159 143 163 155 131 135 135 128 128 136 142 141 143 169
330 325 317 310 306 307 308 300 301 302 302 289 278 269 282 284 273 265 226 210 193 195 181 160 163 164 153 157 146 132 119 116 119 116 115 113 114 113 111 111 111 108 94
324 319 319 316 313 312 308 310 306 302 288 285 290 278 295 299 269 263 221 200 198 189 187 162 166 148 146 142 134 132 128 126 127 120 113 111 110 105 98 88 79 71 78
329 327 330 328 320 322 306 297 300 289 258 309 323 298 297 292 335 174 152 175 183 173 180 153 146 141 141 139 132 129 126 122 116 110 107 106 96 87 76 65 57 64 61
337 337 338 334 332 330 321 318 316 292 203 296 294 327 122 359 126 152 136 135 146 151 145 149 140 134 140 141 134 129 121 119 115 111 104 97 89 81 70 64 67 70 77
346 346 347 338 346 336 319 329 267 127 144 249 328 19 152 51 131 150 150 145 155 157 158 151 154 158 156 144 133 128 124 121 112 112 105 87 82 78 74 72 73 73 73
346 349 348 346 357 353 347 241 155 123 95 90 102 121 137 102 87 109 121 144 160 156 145 153 152 158 159 150 141 135 132 133 123 123 110 92 84 86 82 74 71 72 71
344 350 353 6 11 26 61 90 135 114 89 102 113 135 141 134 115 115 119 139 149 168 164 160 158 164 159 150 142 137 137 137 125 131 133 107 90 84 78 71 64 58 57
348 348 356 6 58 65 80 98 119 113 100 104 110 121 139 152 152 148 144 144 158 172 182 190 188 173 162 157 157 142 135 136 133 133 138 125 114 101 93 73 59 49 46
348 351 20 92 111 93 99 113 114 116 105 107 117 112 119 142 149 150 146 150 155 167 178 183 193 197 159 160 158 162 148 150 145 147 154 135 128 105 94 76 61 47 45
351 25 89 100 96 101 114 115 111 114 111 103 127 117 107 119 137 141 142 143 149 146 157 160 165 156 158 159 161 173 154 159 153 153 154 139 127 111 102 90 75 60 59
Wind_Speed_850mb
41 46 47 40 35 31 33 36 39 35 31 31 32 30 29 28 28 29 35 37 35 41 37 46 43 32 41 48 52 45 47 47 46 45 42 38 34 29 28 24 22 20 24
36 35 39 41 42 39 43 44 40 38 35 42 36 39 37 36 31 26 29 31 24 30 18 40 40 38 40 45 47 46 45 47 47 46 44 43 39 33 29 26 22 21 25
29 34 38 38 32 34 37 48 44 42 44 33 37 37 45 51 41 23 26 32 27 27 18 20 36 43 50 46 43 41 42 48 46 45 47 45 43 40 33 28 23 23 24
32 33 37 39 41 39 37 41 43 44 44 40 38 38 40 49 42 41 30 24 33 40 46 36 26 32 40 44 47 44 40 43 47 46 49 49 47 45 37 31 30 29 28
51 43 32 35 40 42 42 42 37 33 39 34 40 49 51 51 52 47 38 27 20 29 33 40 39 37 23 33 42 45 45 43 47 49 53 55 50 46 40 34 34 31 30
64 55 44 39 36 39 40 43 44 45 46 60 67 63 57 52 44 44 39 32 27 33 31 37 36 36 36 35 31 36 43 50 50 52 54 55 52 49 42 38 34 31 29
49 50 56 56 55 57 56 54 56 59 56 44 39 46 51 45 42 44 31 38 33 29 28 28 33 31 33 34 36 32 40 49 55 53 55 55 57 52 46 42 36 33 35
54 59 60 54 40 44 48 50 45 34 27 34 44 45 40 52 37 15 23 31 22 16 19 26 34 33 28 27 29 36 50 59 51 55 57 60 64 58 49 43 40 39 35
54 56 49 47 46 32 27 23 27 37 47 43 44 41 30 16 42 37 29 20 14 23 29 32 30 32 32 34 29 33 43 46 46 49 54 67 80 67 58 49 48 44 33
61 55 55 50 42 35 34 38 44 49 50 43 45 36 35 33 30 34 33 32 33 15 16 17 21 23 24 22 26 31 39 51 50 48 53 70 94 51 64 58 43 35 32
52 47 49 45 36 34 38 41 42 33 32 31 30 30 29 23 22 34 46 25 15 27 31 33 34 31 27 25 20 17 11 18 12 26 29 69 73 86 49 39 40 33 27
51 45 44 36 31 32 32 35 36 35 36 39 34 32 27 23 24 22 36 32 27 9 15 21 24 21 19 20 19 7 18 11 14 14 7 23 34 24 35 35 30 25 21
54 51 51 44 38 35 37 41 43 46 45 46 47 42 34 30 29 29 32 35 26 20 15 11 11 11 11 9 11 10 18 18 20 11 11 25 19 24 26 26 23 21 17
64 65 55 41 41 41 44 47 50 52 55 50 43 40 42 36 28 28 31 31 26 20 16 13 7 2 6 10 17 24 32 34 36 44 37 28 26 23 17 19 19 16 13
72 53 43 41 45 46 47 51 56 53 44 40 38 38 33 31 29 26 27 31 29 25 13 12 14 10 11 20 23 20 10 4 25 24 26 26 26 25 23 20 19 16 12
48 39 36 38 42 53 60 56 42 37 32 32 29 24 22 23 26 22 26 30 32 36 20 19 19 36 26 34 23 24 23 33 31 31 34 31 27 27 23 20 16 11 8
38 39 44 50 55 50 46 33 30 27 24 20 12 13 18 23 23 22 26 31 40 40 28 19 24 37 36 29 46 52 51 43 44 34 36 33 27 25 22 18 15 12 6
43 48 51 49 44 40 32 25 22 22 17 11 7 14 17 19 18 20 25 36 51 41 29 31 37 45 50 59 59 57 54 50 45 46 38 35 30 27 24 20 18 14 6
46 43 40 42 35 34 24 15 22 15 12 4 8 10 9 12 14 25 28 34 46 42 34 53 56 49 43 46 53 56 58 57 53 47 42 35 30 26 24 21 19 14 11
39 34 35 36 30 23 17 13 13 9 5 4 4 7 4 14 25 31 47 49 47 56 57 54 46 47 42 47 53 57 58 54 52 44 41 36 32 30 28 28 24 19 15
34 33 35 29 21 19 12 12 2 4 5 1 2 5 8 15 23 35 37 29 52 49 42 52 58 51 48 53 56 53 49 48 46 40 47 43 35 34 36 32 30 25 22
33 32 30 25 18 16 8 1 6 10 7 8 9 5 7 13 31 28 33 32 40 52 50 57 62 54 49 49 55 52 46 51 47 36 40 44 34 39 38 35 35 33 29
30 29 24 18 12 12 11 8 11 10 8 10 11 11 15 20 19 21 23 23 32 44 31 38 59 58 48 40 49 47 41 35 38 38 29 38 32 34 35 33 34 34 34
27 27 18 12 7 12 13 12 19 16 15 16 18 17 18 23 23 21 21 24 31 44 34 31 26 35 44 38 35 37 33 34 36 37 31 39 32 28 27 28 29 31 34
23 20 12 14 13 12 16 23 23 20 20 18 18 16 16 22 23 22 26 28 28 35 39 33 28 29 38 34 28 35 28 30 40 36 32 33 31 27 25 22 22 24 33
15 6 11 15 17 15 16 16 23 23 21 19 19 25 22 23 26 28 25 26 32 30 34 35 32 35 35 36 26 22 21 22 33 38 31 33 34 33 27 23 23 27 35
Wind_Direction_850mb
315 314 316 315 311 305 302 304 303 306 302 312 302 317 327 325 318 319 315 300 269 286 272 250 239 247 251 256 256 251 244 242 242 236 232 232 233 231 227 222 219 212 207
313 312 310 306 303 297 299 300 299 295 293 310 306 294 312 317 321 321 312 321 294 273 260 232 241 249 253 256 257 254 251 247 244 238 232 231 230 229 225 224 226 212 213
322 315 306 294 278 269 271 288 292 284 284 285 292 298 303 305 308 306 303 304 287 288 262 271 252 248 253 256 255 249 251 245 242 241 236 233 230 229 226 229 230 220 222
304 301 293 282 277 273 273 277 282 274 276 278 275 288 293 300 300 294 291 291 286 276 276 289 288 269 252 238 243 247 238 243 241 242 237 236 231 230 227 227 229 227 232
299 301 292 285 283 280 278 278 273 267 274 281 285 290 293 287 286 290 284 286 281 267 272 286 286 279 272 254 254 254 253 237 239 242 237 233 229 229 226 226 227 225 228
302 298 298 293 288 285 282 281 282 278 283 298 296 297 295 279 277 278 275 275 287 287 271 280 303 298 294 278 284 273 266 255 236 237 237 235 229 226 223 224 222 223 222
304 298 295 293 293 292 292 293 293 294 298 301 302 300 298 299 283 271 280 274 276 300 284 306 291 295 298 282 272 274 262 273 253 240 233 233 232 224 220 216 218 218 215
315 313 311 309 310 291 286 286 290 299 303 305 311 318 321 301 304 275 280 279 286 303 303 299 301 301 300 308 285 265 259 247 254 249 239 232 230 221 212 206 201 208 204
321 320 322 300 304 310 305 297 294 300 302 300 301 305 313 297 314 296 279 289 270 299 311 302 312 309 285 290 287 274 252 242 243 242 250 240 228 204 194 194 191 190 195
321 320 313 306 301 299 296 295 293 292 293 297 294 293 287 287 292 309 298 291 307 297 304 314 312 314 321 318 294 286 271 260 260 246 245 248 218 176 181 177 178 186 193
321 326 320 313 281 292 297 298 304 296 303 306 299 299 304 307 280 272 294 309 271 291 299 300 299 306 319 334 321 297 252 173 37 232 227 187 145 159 157 161 178 185 198
326 329 328 321 303 301 300 298 297 299 300 298 297 294 289 291 292 274 273 292 300 265 286 297 302 312 316 320 330 295 208 329 92 68 316 340 84 120 156 174 184 187 201
329 321 319 310 308 303 300 297 298 295 299 290 288 284 280 284 283 276 262 264 271 264 268 288 301 308 308 296 326 244 232 240 223 255 215 189 169 155 160 165 170 173 186
321 312 312 300 301 299 295 294 294 295 298 290 286 275 270 276 279 275 252 247 253 243 231 242 265 149 172 177 146 128 112 126 145 160 169 162 161 157 167 172 166 171 181
319 314 307 299 300 303 299 299 302 302 293 288 283 274 276 261 282 264 241 230 228 222 178 154 143 172 209 174 166 178 189 246 137 129 131 140 140 144 152 158 155 158 173
323 326 321 313 306 307 301 299 296 302 298 296 279 271 262 271 279 256 242 225 215 213 162 147 168 186 190 166 161 159 143 163 155 131 135 135 128 128 136 142 141 143 169
330 325 317 310 306 307 308 300 301 302 302 289 278 269 282 284 273 265 226 210 193 195 181 160 163 164 153 157 146 132 119 116 119 116 115 113 114 113 111 111 111 108 94
324 319 319 316 313 312 308 310 306 302 288 285 290 278 295 299 269 263 221 200 198 189 187 162 166 148 146 142 134 132 128 126 127 120 113 111 110 105 98 88 79 71 78
329 327 330 328 320 322 306 297 300 289 258 309 323 298 297 292 335 174 152 175 183 173 180 153 146 141 141 139 132 129 126 122 116 110 107 106 96 87 76 65 57 64 61
337 337 338 334 332 330 321 318 316 292 203 296 294 327 122 359 126 152 136 135 146 151 145 149 140 134 140 141 134 129 121 119 115 111 104 97 89 81 70 64 67 70 77
346 346 347 338 346 336 319 329 267 127 144 249 328 19 152 51 131 150 150 145 155 157 158 151 154 158 156 144 133 128 124 121 112 112 105 87 82 78 74 72 73 73 73
346 349 348 346 357 353 347 241 155 123 95 90 102 121 137 102 87 109 121 144 160 156 145 153 152 158 159 150 141 135 132 133 123 123 110 92 84 86 82 74 71 72 71
344 350 353 6 11 26 61 90 135 114 89 102 113 135 141 134 115 115 119 139 149 168 164 160 158 164 159 150 142 137 137 137 125 131 133 107 90 84 78 71 64 58 57
348 348 356 6 58 65 80 98 119 113 100 104 110 121 139 152 152 148 144 144 158 172 182 190 188 173 162 157 157 142 135 136 133 133 138 125 114 101 93 73 59 49 46
348 351 20 92 111 93 99 113 114 116 105 107 117 112 119 142 149 150 146 150 155 167 178 183 193 197 159 160 158 162 148 150 145 147 154 135 128 105 94 76 61 47 45
351 25 89 100 96 101 114 115 111 114 111 103 127 117 107 119 137 141 142 143 149 146 157 160 165 156 158 159 161 173 154 159 153 153 154 139 127 111 102 90 75 60 59